Simultaneous Nadir Overpasses (SNOs) Predictions

Prediction of SNOs between GOES-17 and FY3D Satellite Orbit:

Table of predicted SNOs for the next 14.0 days since TLE Epoch: 10/28/2023
Index Date Time (GOES-17) GOES-17 Lat,Lon FY3D Lat,Lon Distance(km) Time Diff (sec)
1 10/28/2023 21:04:09 -0.00,-104.66 0.58,-102.14 287.78 80
2 10/30/2023 09:26:26 0.00,-104.70 0.61,-107.50 319.52 80
3 10/31/2023 09:05:20 0.00,-104.70 -0.35,-103.03 189.72 80
4 11/01/2023 21:27:44 -0.00,-104.66 -0.87,-108.41 428.31 80
5 11/02/2023 21:11:59 -0.00,-104.66 0.15,-103.95 81.12 80
6 11/05/2023 09:15:49 0.00,-104.70 0.06,-104.84 16.55 80
7 11/06/2023 08:54:44 0.00,-104.70 -0.97,-100.38 493.24 80
8 11/07/2023 21:17:08 -0.00,-104.67 -0.23,-105.77 124.22 80
9 11/08/2023 21:01:22 -0.00,-104.68 0.75,-101.29 385.70 80
10 11/10/2023 09:23:39 0.00,-104.72 0.42,-106.66 220.33 80
